Location: Baia Mare
(47.6567°N, 23.5850°E)
Time: 16:54:22
(UTC+03:00)

ISS - Pass Details

Date: 04 October 2018
Orbit: 403 x 408 km, 51.6° (Epoch: 16 October)

Event Time Altitude Azimuth Distance (km) Brightness Sun altitude
Rises 20:41:42 0° 292° (WNW) 2,340 1.7 -18.0°
Reaches altitude 10° 20:43:49 10° 296° (WNW) 1,477 0.2 -18.3°
Maximum altitude 20:47:05 58° 16° (NNE) 481 -3.6 -18.8°
Enters shadow 20:47:19 56° 38° (NE) 490 -3.6 -18.9°
